Date String (YYYY-MM-DD hh:mm:ss) UTC,Instrument flags,absolute air pressure of the measurement (hPa),sample flow rate (lpm),inlet stack bypass flow (lpm),air temperature of the measurement (°C),ambient temperature measured by the external sensor (°C),aerosol sample conditioner tube jacket temperature (°C),OPC LED temperature (°C),internal box temperature (°C),relative humidity of the measurement (%),span deviation,mass concentration of particles derived from Lorenz-Mie calculation of OPC scattering (μg/m³),mass concentration of particles derived from Lorenz-Mie calculation of OPC scattering (μg/m³),mass concentration of particles derived from Lorenz-Mie calculation of OPC scattering (μg/m³)
DateTimeUTC,F1_M11,P_M11,Q1_M11,Q2_M11,T1_M11,T2_M11,T3_M11,T4_M11,T5_M11,U1_M11,ZSPAN_M11,X0_M11,X2_M11,X1_M11
2023-12-03 14:00:00,SystemResetWarning,0821.3,4.99,000.00,018.7,017.8,000.0,027.2,020.0,25.5,0000.0,0007.52,0000.58,0000.19
2023-12-03 14:01:00,SystemResetWarning,0821.3,4.99,000.00,018.7,017.8,000.0,027.2,020.0,25.5,0000.0,0007.42,0000.58,0000.19
2023-12-03 14:02:00,SystemResetWarning,0821.3,4.99,000.00,018.7,017.8,000.0,027.2,020.0,25.5,0000.0,0007.39,0000.55,0000.19
2023-12-03 14:03:00,SystemResetWarning,0821.3,5.00,000.00,018.7,017.7,000.0,027.2,020.0,25.5,0000.0,0005.85,0000.51,0000.19
2023-12-03 14:04:00,SystemResetWarning,0821.4,5.01,000.00,018.7,017.7,000.0,027.2,020.0,25.4,0000.0,0005.28,0000.50,0000.19
2023-12-03 14:05:00,SystemResetWarning,0821.9,5.00,000.00,018.7,017.8,000.0,027.2,020.0,25.4,0000.0,0005.21,0000.47,0000.19
2023-12-03 14:06:00,SystemResetWarning,0822.0,5.01,000.00,018.7,017.8,000.0,027.2,020.0,25.4,0000.0,0005.42,0000.49,0000.19
2023-12-03 14:07:00,SystemResetWarning,0822.0,5.00,000.00,018.7,017.8,000.0,027.2,020.0,25.4,0000.0,0004.64,0000.44,0000.19
2023-12-03 14:08:00,SystemResetWarning,0821.9,5.00,000.00,018.7,017.8,000.0,027.2,020.0,25.4,0000.0,0003.32,0000.41,0000.19
2023-12-03 14:09:00,SystemResetWarning,0822.0,4.99,000.00,018.7,017.8,000.0,027.2,020.0,25.4,0000.0,0003.29,0000.42,0000.19
2023-12-03 14:10:00,SystemResetWarning,0821.9,4.99,000.00,018.7,017.8,000.0,027.2,020.0,25.5,0000.0,0001.60,0000.39,0000.18
2023-12-03 14:11:00,SystemResetWarning,0821.6,5.01,000.00,018.7,017.8,000.0,027.2,020.0,25.5,0000.0,0001.27,0000.36,0000.18
2023-12-03 14:12:00,SystemResetWarning,0821.7,5.00,000.00,018.7,017.8,000.0,027.2,020.0,25.5,0000.0,0001.20,0000.34,0000.18
2023-12-03 14:13:00,SystemResetWarning,0821.7,5.01,000.00,018.7,017.8,000.0,027.2,020.0,25.5,0000.0,0001.25,0000.36,0000.18
2023-12-03 14:14:00,SystemResetWarning,0821.7,5.00,000.00,018.7,017.8,000.0,027.2,020.0,25.5,0000.0,0001.33,0000.39,0000.19
2023-12-03 14:15:00,SystemResetWarning,0821.8,5.00,000.00,018.7,017.8,000.0,027.2,020.0,25.5,0000.0,0001.39,0000.41,0000.19
2023-12-03 14:16:00,SystemResetWarning,0821.8,5.00,000.00,018.7,017.8,000.0,027.2,020.0,25.5,0000.0,0001.59,0000.47,0000.19
2023-12-03 14:17:00,SystemResetWarning,0821.8,5.00,000.00,018.7,017.8,000.0,027.2,020.0,25.5,0000.0,0001.39,0000.48,0000.19
2023-12-03 14:18:00,SystemResetWarning,0821.8,5.00,000.00,018.7,017.8,000.0,027.2,020.0,25.5,0000.0,0001.01,0000.45,0000.19
2023-12-03 14:19:00,SystemResetWarning,0821.8,4.99,000.00,018.7,017.8,000.0,027.2,020.0,25.5,0000.0,0001.01,0000.45,0000.19
2023-12-03 14:20:00,SystemResetWarning,0821.8,5.00,000.00,018.7,017.8,000.0,027.2,020.0,25.5,0000.0,0001.04,0000.46,0000.19
2023-12-03 14:21:00,SystemResetWarning,0821.8,5.00,000.00,018.7,017.8,000.0,027.2,020.0,25.5,0000.0,0001.03,0000.45,0000.20
2023-12-03 14:22:00,SystemResetWarning,0821.8,5.01,000.00,018.7,017.8,000.0,027.2,020.0,25.5,0000.0,0001.05,0000.46,0000.20
2023-12-03 14:23:00,SystemResetWarning,0821.8,5.00,000.00,018.7,017.9,000.0,027.2,020.0,25.4,0000.0,0001.08,0000.46,0000.19
2023-12-03 14:24:00,SystemResetWarning,0821.9,5.00,000.00,018.7,017.9,000.0,027.2,020.0,25.4,0000.0,0001.14,0000.46,0000.18
2023-12-03 14:25:00,SystemResetWarning,0822.0,4.99,000.00,018.7,017.9,000.0,027.2,020.0,25.4,0000.0,0001.24,0000.48,0000.18
2023-12-03 14:26:00,SystemResetWarning,0822.0,4.99,000.00,018.7,017.9,000.0,027.2,020.0,25.4,0000.0,0001.25,0000.48,0000.18
2023-12-03 14:27:00,SystemResetWarning,0822.1,4.99,000.00,018.7,017.9,000.0,027.2,020.0,25.4,0000.0,0001.11,0000.43,0000.18
2023-12-03 14:28:00,SystemResetWarning,0822.0,5.00,000.00,018.7,017.9,000.0,027.2,020.0,25.4,0000.0,0001.03,0000.41,0000.17
2023-12-03 14:29:00,SystemResetWarning,0822.1,5.00,000.00,018.8,017.9,000.0,027.2,020.0,25.4,0000.0,0001.10,0000.43,0000.17
2023-12-03 14:30:00,SystemResetWarning,0822.1,5.00,000.00,018.8,017.9,000.0,027.2,020.0,25.4,0000.0,0001.12,0000.44,0000.16
2023-12-03 14:31:00,SystemResetWarning,0822.1,5.00,000.00,018.8,017.9,000.0,027.2,020.0,25.4,0000.0,0001.17,0000.48,0000.17
2023-12-03 14:32:00,SystemResetWarning,0822.1,5.01,000.00,018.8,018.0,000.0,027.2,020.0,25.4,0000.0,0001.28,0000.51,0000.17
2023-12-03 14:33:00,SystemResetWarning,0822.1,5.00,000.00,018.8,018.0,000.0,027.2,020.0,25.4,0000.0,0001.27,0000.51,0000.17
2023-12-03 14:34:00,SystemResetWarning,0822.3,5.00,000.00,018.8,018.0,000.0,027.2,020.0,25.4,0000.0,0001.27,0000.52,0000.17
2023-12-03 14:35:00,SystemResetWarning,0822.4,5.00,000.00,018.8,018.0,000.0,027.2,020.0,25.3,0000.0,0001.20,0000.51,0000.18
2023-12-03 14:36:00,SystemResetWarning,0822.4,5.00,000.00,018.8,018.0,000.0,027.2,020.0,25.3,0000.0,0001.62,0000.49,0000.17
2023-12-03 14:37:00,SystemResetWarning,0822.4,4.99,000.00,018.8,018.0,000.0,027.2,020.0,25.3,0000.0,0001.75,0000.47,0000.17
2023-12-03 14:38:00,SystemResetWarning,0822.4,5.00,000.00,018.8,018.0,000.0,027.2,020.0,25.3,0000.0,0001.84,0000.47,0000.16
2023-12-03 14:39:00,SystemResetWarning,0822.4,5.00,000.00,018.8,018.0,000.0,027.2,020.0,25.3,0000.0,0001.84,0000.47,0000.16
2023-12-03 14:40:00,SystemResetWarning,0822.4,5.00,000.00,018.8,018.0,000.0,027.2,020.0,25.3,0000.0,0001.77,0000.45,0000.16
2023-12-03 14:41:00,SystemResetWarning,0822.4,5.01,000.00,018.8,018.0,000.0,027.2,020.0,25.3,0000.0,0001.82,0000.48,0000.16
2023-12-03 14:42:00,SystemResetWarning,0822.4,5.01,000.00,018.8,018.0,000.0,027.2,020.0,25.3,0000.0,0001.82,0000.48,0000.17
2023-12-03 14:43:00,SystemResetWarning,0822.4,5.00,000.00,018.8,018.0,000.0,027.2,020.0,25.3,0000.0,0001.77,0000.46,0000.18
2023-12-03 14:44:00,SystemResetWarning,0822.4,5.00,000.00,018.8,018.0,000.0,027.2,020.0,25.3,0000.0,0001.81,0000.47,0000.18
2023-12-03 14:45:00,SystemResetWarning,0822.7,5.00,000.00,018.8,018.0,000.0,027.2,020.0,25.4,0000.0,0002.30,0000.50,0000.18
2023-12-03 14:46:00,SystemResetWarning,0822.4,4.99,000.00,018.8,017.9,000.0,027.2,020.0,25.4,0000.0,0002.86,0000.50,0000.18
2023-12-03 14:47:00,SystemResetWarning,0822.5,4.99,000.00,018.8,017.9,000.0,027.2,020.0,25.5,0000.0,0002.87,0000.48,0000.19
2023-12-03 14:48:00,SystemResetWarning,0822.4,4.99,000.00,018.8,017.9,000.0,027.2,020.0,25.5,0000.0,0003.80,0000.48,0000.19
2023-12-03 14:49:00,SystemResetWarning,0822.4,5.00,000.00,018.8,017.9,000.0,027.2,020.0,26.6,0000.0,0003.64,0000.46,0000.19
2023-12-03 14:50:00,SystemResetWarning,0822.4,4.99,000.00,018.8,017.9,000.0,027.2,020.0,27.4,0000.0,0003.62,0000.46,0000.19
2023-12-03 14:51:00,SystemResetWarning,0822.5,5.01,000.00,018.8,017.9,000.0,027.2,020.0,26.2,0000.0,0003.66,0000.48,0000.19
2023-12-03 14:52:00,SystemResetWarning,0823.0,5.00,000.00,018.8,017.9,000.0,027.2,020.0,25.9,0000.0,0003.89,0000.47,0000.19
2023-12-03 14:53:00,SystemResetWarning,0822.8,5.01,000.00,018.8,017.9,000.0,027.2,020.0,25.8,0000.0,0004.36,0000.46,0000.18
2023-12-03 14:54:00,SystemResetWarning,0822.7,5.01,000.00,018.8,018.0,000.0,027.2,020.0,25.7,0000.0,0004.36,0000.48,0000.17
2023-12-03 14:55:00,SystemResetWarning,0822.6,5.00,000.00,018.8,018.0,000.0,027.2,020.0,25.7,0000.0,0004.33,0000.46,0000.16
2023-12-03 14:56:00,SystemResetWarning,0823.1,4.99,000.00,018.8,018.0,000.0,027.2,020.0,25.6,0000.0,0004.30,0000.45,0000.15
2023-12-03 14:57:00,SystemResetWarning,0822.7,5.00,000.00,018.8,018.0,000.0,027.2,020.0,25.6,0000.0,0003.32,0000.46,0000.15
2023-12-03 14:58:00,SystemResetWarning,0822.6,5.00,000.00,018.8,018.0,000.0,027.2,020.0,25.6,0000.0,0003.24,0000.45,0000.15
2023-12-03 14:59:00,SystemResetWarning,0822.6,5.00,000.00,018.8,018.0,000.0,027.2,020.0,25.5,0000.0,0001.70,0000.46,0000.15
